Location: Inglewood
(33.9617°N, 118.3531°W)
Time: 23:24:37
(UTC+00:00)

CBERS-1 - Pass Details

Date: 03 August 2024
Orbit: 766 x 775 km, 98.8° (Epoch: 09 September)

Event Time Altitude Azimuth Distance (km) Brightness Sun altitude
Rises 12:13:01 0° 17° (NNE) 3,248 8.0 -10.9°
Reaches altitude 10° 12:15:21 10° 20° (NNE) 2,316 7.3 -10.5°
Maximum altitude 12:20:25 64° 102° (ESE) 852 4.5 -9.6°
Drops below altitude 10° 12:25:26 10° 183° (S) 2,297 6.2 -8.6°
Sets 12:27:44 0° 187° (S) 3,218 6.9 -8.2°
